Ramona, CA

10:39 AM PDT on July 27, 2017 (GMT -0700)
Ramona

Weather History for KRNM - May, 2013

Change the Weather History Date:

Friday, May 3, 2013

  Actual Average Record
Temperature  
Mean Temperature 67 °F 59 °F  
Max Temperature 91 °F 73 °F 100 °F (2004)
Min Temperature 42 °F 45 °F 38 °F (2011)
Degree Days  
Heating Degree Days 0 6  
Month to date heating degree days 1 19  
Since 1 July heating degree days 2276 2411  
Cooling Degree Days 2 0  
Month to date cooling degree days 5 0  
Year to date cooling degree days 6 5  
Growing Degree Days 17 (Base 50)    
Moisture  
Dew Point 17 °F    
Average Humidity 25    
Maximum Humidity 45    
Minimum Humidity 4    
Precipitation  
Precipitation 0.00 in 0.03 in 0.88 in (2003)
Month to date precipitation 0.00 0.08  
Year to date precipitation 4.03 10.99  
Since 1 July precipitation 7.67  
Snow  
Snow 0.00 in - - ()
Month to date snowfall 0.0  
Year to date snowfall 0.0  
Snow Depth 0.00 in    
Sea Level Pressure  
Sea Level Pressure 29.88 in    
Wind  
Wind Speed 5 mph (West)    
Max Wind Speed 21 mph    
Max Gust Speed 25 mph    
Visibility 10 miles    
Events      
T = Trace of Precipitation, MM = Missing Value Source: NWS Daily Summary

Daily Weather History Graph

Daily Weather History Graph

Search for Another Location

Airport or City:

Trip Planner

Search our weather history database for the weather conditions in past years. The results will help you decide how hot, cold, wet, or windy it might be!

Date:

Astronomy

May. 03, 2013 Rise Set
Actual Time 5:57 AM PDT 7:31 PM PDT
Civil Twilight 5:31 AM PDT 7:58 PM PDT
Nautical Twilight 4:59 AM PDT 8:29 PM PDT
Astronomical Twilight 4:26 AM PDT 9:03 PM PDT
Moon 2:05 AM PDT (5/3) 1:49 PM PDT (5/3)
Length of Visible Light 14h 26m
Length of Day
13h 33m
Waning Crescent, 36% of the Moon is Illuminated
May 3
Waning Crescent
May 9
New
May 17
First Quarter
May 24
Full
May 31
Last Quarter

Hourly Weather History & Observations

Time (PDT) Temp. Dew Point Humidity Pressure Visibility Wind Dir Wind Speed Gust Speed Precip Events Conditions
12:53 AM 50.0 °F 17.1 °F 27% 30.01 in 10.0 mi WSW 3.5 mph - N/A   Clear
1:53 AM 46.9 °F 19.9 °F 34% 29.99 in 10.0 mi Calm Calm - N/A   Clear
2:53 AM 46.0 °F 21.0 °F 37% 29.97 in 10.0 mi Calm Calm - N/A   Clear
3:53 AM 46.0 °F 21.0 °F 37% 29.96 in 10.0 mi Calm Calm - N/A   Clear
4:53 AM 45.0 °F 21.0 °F 39% 29.94 in 10.0 mi Calm Calm - N/A   Clear
5:53 AM 43.0 °F 23.0 °F 45% 29.95 in 10.0 mi Calm Calm - N/A   Clear
6:53 AM 48.9 °F 24.1 °F 38% 29.94 in 10.0 mi Calm Calm - N/A   Clear
7:53 AM 68.0 °F 19.0 °F 15% 29.92 in 10.0 mi Calm Calm - N/A   Clear
8:53 AM 81.0 °F 12.0 °F 7% 29.91 in 10.0 mi Calm Calm - N/A   Clear
9:53 AM 86.0 °F 7.0 °F 5% 29.90 in 10.0 mi Variable 4.6 mph - N/A   Clear
10:53 AM 89.1 °F 6.1 °F 4% 29.90 in 10.0 mi East 6.9 mph - N/A   Clear
11:53 AM 88.0 °F 1.0 °F 4% 29.89 in 10.0 mi Variable 3.5 mph - N/A   Clear
12:53 PM 91.0 °F 12.0 °F 5% 29.86 in 10.0 mi West 9.2 mph 18.4 mph N/A   Clear
1:53 PM 89.1 °F 9.0 °F 5% 29.84 in 10.0 mi West 15.0 mph - N/A   Clear
2:53 PM 88.0 °F 14.0 °F 6% 29.82 in 10.0 mi West 16.1 mph 24.2 mph N/A   Clear
3:53 PM 84.9 °F 7.0 °F 5% 29.82 in 10.0 mi West 17.3 mph - N/A   Clear
4:53 PM 82.9 °F 12.9 °F 7% 29.83 in 10.0 mi West 11.5 mph - N/A   Clear
5:53 PM 80.1 °F 15.1 °F 9% 29.83 in 10.0 mi West 6.9 mph - N/A   Clear
6:53 PM 75.0 °F 23.0 °F 14% 29.82 in 10.0 mi West 3.5 mph - N/A   Clear
7:53 PM 71.1 °F 24.1 °F 17% 29.81 in 10.0 mi Calm Calm - N/A   Clear
8:53 PM 66.0 °F 23.0 °F 20% 29.82 in 10.0 mi Calm Calm - N/A   Clear
9:53 PM 60.1 °F 26.1 °F 27% 29.83 in 10.0 mi Calm Calm - N/A   Clear
10:53 PM 54.0 °F 28.9 °F 38% 29.82 in 10.0 mi Calm Calm - N/A   Clear
11:53 PM 50.0 °F 27.0 °F 41% 29.81 in 10.0 mi Calm Calm - N/A   Clear